This demonstration page uses our WeatherBlox Daily Observations layout. Learn more.

Left ArrowRight Arrow

Hourly Observations for August 18, 2020

Temp ( °F °C ) Dew Point ( °F °C ) Humidity (%) Winds ( mph kmh ) Pressure ( in mb ) Visibility ( mi km ) Precip ( " mm )
12:51 am 00:51 Clear 80 26.7 53 11.7 39 39 SE 10 17 29.95 1014 10 16.0934 0 0
1:51 am 01:51 Clear 82 27.8 52 11.1 35 35 E 9 15 29.95 1014 10 16.0934 0 0
2:51 am 02:51 Clear 79 26.1 52 11.1 39 39 ESE 8 13 29.96 1015 10 16.0934 0 0
3:51 am 03:51 Clear 78 25.6 52 11.1 40 40 E 6 9 29.96 1014 10 16.0934 0 0
4:51 am 04:51 Clear 77 25 50 10 39 39 Calm 29.95 1014 10 16.0934 0 0
5:51 am 05:51 Sunny 76 24.4 52 11.1 43 43 ESE 9 15 29.97 1015 10 16.0934 0 0
6:51 am 06:51 Sunny 80 26.7 52 11.1 38 38 SE 9 15 30 1016 10 16.0934 0 0
7:51 am 07:51 Sunny 84 28.9 52 11.1 33 33 SE 10 17 30.01 1016 10 16.0934 0 0
8:51 am 08:51 Sunny 88 31.1 51 10.6 28 28 SSE 9 15 30 1016 10 16.0934 0 0
9:51 am 09:51 Sunny 91 32.8 52 11.1 26 26 SSE 9 15 29.99 1016 10 16.0934 0 0
10:51 am 10:51 Sunny 94 34.4 51 10.6 23 23 S 9 15 29.97 1015 10 16.0934 0 0
11:51 am 11:51 Sunny 97 36.1 50 10 20 20 SW 6 9 29.94 1014 10 16.0934 0 0
12:51 pm 12:51 Sunny 97 36.1 49 9.4 20 20 Calm 29.91 1013 10 16.0934 0 0
1:51 pm 13:51 Sunny 99 37.2 47 8.3 17 17 Calm 29.86 1011 10 16.0934 0 0
2:51 pm 14:51 Sunny 102 38.9 45 7.2 14 14 undefined N/A 29.82 1010 10 16.0934 0 0
3:51 pm 15:51 Sunny 102 38.9 45 7.2 14 14 WSW 9 15 29.79 1009 10 16.0934 0 0
4:51 pm 16:51 Sunny 102 38.9 45 7.2 14 14 S 6 9 29.78 1008 10 16.0934 0 0
5:51 pm 17:51 Sunny 100 37.8 45 7.2 15 15 SW 9 15 29.77 1008 10 16.0934 0 0
6:51 pm 18:51 Sunny 98 36.7 46 7.8 17 17 SSW 5 7 29.78 1008 10 16.0934 0 0
7:51 pm 19:51 Clear 96 35.6 44 6.7 17 17 ESE 7 11 29.8 1009 10 16.0934 0 0
8:51 pm 20:51 Clear 94 34.4 49 9.4 21 21 ENE 6 9 29.83 1010 10 16.0934 0 0
9:51 pm 21:51 Clear 90 32.2 50 10 25 25 E 10 17 29.81 1010 10 16.0934 0 0
10:51 pm 22:51 Clear 89 31.7 49 9.4 25 25 E 7 11 29.81 1010 10 16.0934 0 0
11:51 pm 23:51 Clear 86 30 52 11.1 31 31 E 10 17 29.81 1010 10 16.0934 0 0

Powered by AerisWeather